Location: Unspecified
(43.4680°N, 87.1740°E)
Time: 03:42:08
(UTC+00:00)

Cosmos 1470 - Pass Details

Date: 17 April 2021
Orbit: 520 x 542 km, 82.5° (Epoch: 16 May)

Event Time Altitude Azimuth Distance (km) Brightness Sun altitude
Rises 22:26:26 0° 355° (N) 2,657 6.6 -10.6°
Reaches altitude 10° 22:28:36 10° 359° (N) 1,763 5.7 -10.3°
Maximum altitude 22:32:25 59° 80° (E) 607 3.4 -9.6°
Drops below altitude 10° 22:36:13 10° 160° (SSE) 1,750 5.3 -9.0°
Sets 22:38:22 0° 164° (SSE) 2,634 6.2 -8.7°
